Flag for Slovakia Weather past 2 weeks in Bratislava, Slovakia

Now
41 °F

Partly cloudy.


Feels Like: 35 °F
Forecast: 35 / 51 °F
Wind: 10 mph from Northwest

Location: Bratislava Ivanka

Current Time: Feb 28, 2015 at 6:59:28 AM

Latest Report: Feb 28, 2015 at 6:30 AM


Visibility: 5 mi

Pressure: 30.04 "Hg

Humidity: 81%

Dew point: 36 °F

Location of BratislavaLocation

Historic Weather in Bratislava — Graph

°F

Bratislava temperature yesterday

Maximum temperature yesterday: 48 °F (at 1:00 PM)
Minimum temperature yesterday: 36 °F (at 6:30 AM)
Average temperature yesterday: 42 °F

Past Weeks' High & Low Weather Summary

 TemperatureHumidityPressure
High54 °F (Feb 21, 2:00 PM)100% (Feb 23, 12:00 PM)30.77 "Hg (Feb 23, 12:00 PM)
Low23 °F (Feb 20, 6:00 AM)38% (Feb 21, 2:00 PM)29.59 "Hg (Feb 21, 3:30 PM)
Average38 °F77%30.09 "Hg
* Reported Feb 13 5:00 AM — Feb 28 5:30 AM, Bratislava, Weather by CustomWeather, © 2015

Note: Actual official high and low records may vary slightly from our data, if they occured in-between our weather recording intervals... More about our weather records

Advertising

Bratislava weather history for previous 24 hours

 ConditionsComfort  
Time TempWeatherWind HumidityBarometerVisibility
5:30 AM
Sat, Feb 28
41 °FPartly cloudy.7 mph81%30.04 "HgN/A
5:00 AM41 °FPassing clouds.5 mph81%30.04 "HgN/A
4:30 AM41 °FPartly cloudy.No wind76%30.04 "HgN/A
4:00 AM41 °FPartly cloudy.5 mph81%30.04 "HgN/A
3:30 AM41 °FPassing clouds.3 mph81%30.04 "HgN/A
3:00 AM41 °FPassing clouds.6 mph81%30.04 "HgN/A
2:30 AM41 °FPassing clouds.6 mph81%30.04 "HgN/A
2:00 AM39 °FPassing clouds.3 mph87%30.04 "HgN/A
1:30 AM37 °FPassing clouds.2 mph87%30.04 "HgN/A
1:00 AM39 °FPassing clouds.2 mph87%30.01 "HgN/A
12:30 AM41 °FPassing clouds.No wind81%30.01 "HgN/A
12:00 AM41 °FPassing clouds.1 mph81%30.01 "HgN/A
11:30 PM
Fri, Feb 27
41 °FPartly cloudy.1 mph81%30.01 "HgN/A
11:00 PM41 °FPassing clouds.1 mph81%30.01 "HgN/A
10:30 PM41 °FPassing clouds.2 mph81%30.01 "HgN/A
10:00 PM41 °FPassing clouds.No wind81%30.01 "HgN/A
9:30 PM41 °FPassing clouds.1 mph81%30.01 "HgN/A
9:00 PM41 °FPassing clouds.3 mph81%29.98 "HgN/A
8:30 PM41 °FPassing clouds.5 mph81%29.98 "HgN/A
8:00 PM41 °FPassing clouds.7 mph81%29.98 "HgN/A
7:30 PM43 °FPassing clouds.10 mph76%29.98 "HgN/A
7:00 PM43 °FPassing clouds.10 mph71%29.95 "HgN/A
6:30 PM43 °FPassing clouds.9 mph76%29.95 "HgN/A
6:00 PM43 °FPassing clouds.8 mph81%29.95 "HgN/A
5:30 PM45 °FPartly sunny.8 mph71%29.95 "HgN/A
5:00 PM45 °FPartly sunny.10 mph71%29.92 "HgN/A
4:30 PM45 °FPartly sunny.13 mph76%29.92 "HgN/A
4:00 PM46 °FPartly sunny.14 mph71%29.92 "HgN/A
3:30 PM46 °FPartly sunny.13 mph71%29.92 "HgN/A
3:00 PM46 °FPartly sunny.13 mph71%29.92 "HgN/A
2:30 PM46 °FPartly sunny.12 mph71%29.92 "HgN/A
2:00 PM46 °FPartly sunny.10 mph71%29.92 "HgN/A
1:30 PM48 °FPartly sunny.10 mph62%29.92 "HgN/A
1:00 PM48 °FPartly sunny.8 mph62%29.92 "HgN/A
12:30 PM46 °FPartly sunny.9 mph66%29.95 "HgN/A
12:00 PM46 °FPartly sunny.8 mph66%29.95 "HgN/A
11:30 AM45 °FPartly sunny.3 mph71%29.95 "HgN/A
11:00 AM45 °FScattered clouds.8 mph71%29.95 "HgN/A
10:30 AM45 °FPassing clouds.7 mph71%29.95 "HgN/A
10:00 AM43 °FScattered clouds.7 mph76%29.95 "HgN/A
9:30 AM41 °FFog.6 mph87%29.95 "Hg3 mi
9:00 AM39 °FFog.5 mph87%29.95 "Hg2 mi
8:30 AM37 °FFog.8 mph87%29.95 "Hg1 mi
8:00 AM37 °FFog.3 mph93%29.95 "Hg1 mi
7:30 AM36 °FLight fog.No wind93%29.95 "Hg1 mi
7:00 AM36 °FSleet. Cloudy.1 mph87%29.95 "Hg2 mi
6:30 AM36 °FFog.3 mph93%29.95 "Hg5 mi
6:00 AM37 °FPassing clouds.No wind93%29.95 "Hg6 mi
Weather by CustomWeather, © 2015

See weather overviewHow to use our weather pages